OE5RBO Weather Reports


Display with metric or nautical units.
time (UTC)temp
F
wind
direction
speed
MPH
gust
MPH
rain 1hr
in
rain 24hr
in
rain mn
in
humidity
%
barometer
mb
20260510172320 72 25 1.0 4.0 0.00 0.00 0.00 54 1005.5
20260510171320 72 35 4.0 12.0 0.00 0.00 0.00 52 1005.6
20260510170319 73 62 5.0 13.0 0.00 0.00 0.00 49 1005.6
20260510165319 74 38 5.0 11.0 0.00 0.00 0.00 50 1005.7
20260510163318 74 17 5.0 11.0 0.00 0.00 0.00 46 1006.0
20260510162318 75 23 3.0 8.0 0.00 0.00 0.00 49 1006.1
20260510161317 76 288 3.0 8.0 0.00 0.00 0.00 46 1006.2
20260510160317 75 25 3.0 10.0 0.00 0.00 0.00 47 1006.2
20260510155317 75 101 4.0 10.0 0.00 0.00 0.00 49 1006.4
20260510154316 75 27 3.0 7.0 0.00 0.00 0.00 49 1006.4
20260510153316 76 15 5.0 10.0 0.00 0.00 0.00 48 1006.5
20260510152316 76 288 4.0 9.0 0.00 0.00 0.00 48 1006.6
20260510150315 75 38 6.0 11.0 0.00 0.00 0.00 51 1006.7
20260510145315 75 330 6.0 15.0 0.00 0.00 0.00 48 1006.7
20260510144314 77 35 6.0 12.0 0.00 0.00 0.00 44 1006.7
20260510141313 78 128 4.0 11.0 0.00 0.00 0.00 43 1007.2
20260510135312 78 14 4.0 10.0 0.00 0.00 0.00 42 1007.7
20260510134312 79 69 3.0 11.0 0.00 0.00 0.00 40 1007.8
20260510133312 79 7 3.0 9.0 0.00 0.00 0.00 44 1007.9
20260510131311 79 48 2.0 9.0 0.00 0.00 0.00 44 1008.1
20260510130311 77 17 4.0 11.0 0.00 0.00 0.00 49 1008.3
20260510123309 78 46 3.0 11.0 0.00 0.00 0.00 43 1008.9
20260510122309 78 242 2.0 9.0 0.00 0.00 0.00 47 1009.0
20260510121309 77 165 2.0 8.0 0.00 0.00 0.00 48 1009.1
20260510120308 76 38 2.0 6.0 0.00 0.00 0.00 51 1009.2
20260510115308 75 163 4.0 9.0 0.00 0.00 0.00 51 1009.3
20260510114309 74 205 2.0 8.0 0.00 0.00 0.00 53 1009.3
20260510113307 74 288 2.0 7.0 0.00 0.00 0.00 55 1009.5
20260510110306 72 37 6.0 14.0 0.00 0.00 0.00 55 1009.9
20260510103305 71 288 4.0 9.0 0.00 0.00 0.00 57 1010.2
20260510101304 72 55 1.0 8.0 0.00 0.00 0.00 57 1010.4
20260510095305 71 218 3.0 9.0 0.00 0.00 0.00 58 1010.8
20260510094303 71 18 2.0 7.0 0.00 0.00 0.00 60 1010.8
20260510093303 70 104 3.0 7.0 0.00 0.00 0.00 59 1010.8
20260510092306 69 45 5.0 9.0 0.00 0.00 0.00 60 1010.9
20260510091302 68 14 7.0 12.0 0.00 0.00 0.00 61 1011.1
20260510090302 69 37 3.0 8.0 0.00 0.00 0.00 61 1011.1
20260510083301 68 142 3.0 7.0 0.00 0.00 0.00 63 1011.5
20260510082301 69 37 4.0 9.0 0.00 0.00 0.00 65 1011.6
20260510080300 69 288 1.0 8.0 0.00 0.00 0.00 68 1011.7
20260510075259 68 357 1.0 4.0 0.00 0.00 0.00 66 1011.8
20260510074259 68 217 1.0 3.0 0.00 0.00 0.00 67 1012.0
20260510073258 67 222 1.0 4.0 0.00 0.00 0.00 69 1012.1
20260510072258 67 218 0.0 4.0 0.00 0.00 0.00 68 1012.1
20260510071258 65 231 1.0 3.0 0.00 0.00 0.00 72 1012.1
20260510070257 65 229 1.0 4.0 0.00 0.00 0.00 70 1012.1
20260510065257 68 0 0.0 0.0 0.00 0.00 0.00 66 1012.2
20260510064257 66 0 0.0 0.0 0.00 0.00 0.00 71 1012.4
20260510063256 63 0 0.0 0.0 0.00 0.00 0.00 73 1012.7
20260510062256 64 0 0.0 0.0 0.00 0.00 0.00 70 1012.8
20260510061255 63 0 0.0 0.0 0.00 0.00 0.00 74 1012.9
20260510060255 62 0 0.0 0.0 0.00 0.00 0.00 75 1012.9
20260510055255 61 0 0.0 0.0 0.00 0.00 0.00 79 1012.9
20260510054255 59 0 0.0 0.0 0.00 0.00 0.00 83 1013.0
20260510052254 55 0 0.0 0.0 0.00 0.00 0.00 95 1012.8
20260510051254 52 0 0.0 0.0 0.00 0.00 0.00 97 1012.9
20260510050253 49 0 0.0 0.0 0.00 0.00 0.00 98 1013.0
20260510045253 47 0 0.0 0.0 0.00 0.00 0.00 99 1013.0
20260510044252 47 0 0.0 0.0 0.00 0.00 0.00 99 1013.1
20260510043252 47 0 0.0 0.0 0.00 0.00 0.00 99 1013.0
20260510042252 47 0 0.0 0.0 0.00 0.00 0.00 98 1013.0
20260510041251 48 0 0.0 0.0 0.00 0.00 0.00 98 1013.0
20260510040251 48 0 0.0 0.0 0.00 0.00 0.00 97 1013.1
20260510035251 49 77 1.0 3.0 0.00 0.00 0.00 97 1013.2
20260510034250 49 146 0.0 1.0 0.00 0.00 0.00 97 1013.2
20260510033250 49 31 0.0 3.0 0.00 0.00 0.00 98 1013.2
20260510032250 48 41 1.0 4.0 0.00 0.00 0.00 98 1013.3
20260510031249 48 0 0.0 0.0 0.00 0.00 0.00 98 1013.4
20260510030249 49 0 0.0 0.0 0.00 0.00 0.00 98 1013.4
20260510024248 50 0 0.0 0.0 0.00 0.00 0.00 97 1013.5
20260510023248 50 0 0.0 0.0 0.00 0.00 0.00 96 1013.6
20260510022247 50 0 0.0 0.0 0.00 0.00 0.00 97 1013.6
20260510021247 50 0 0.0 0.0 0.00 0.00 0.00 97 1013.6
20260510020247 51 156 0.0 1.0 0.00 0.00 0.00 96 1013.6
20260510015246 51 215 0.0 4.0 0.00 0.00 0.00 97 1013.7
20260510014246 51 27 0.0 1.0 0.00 0.00 0.00 97 1013.7
20260510013246 51 0 0.0 0.0 0.00 0.00 0.00 97 1013.8
20260510012245 51 0 0.0 0.0 0.00 0.00 0.00 96 1013.8
20260510005244 54 156 1.0 4.0 0.00 0.00 0.00 93 1013.4
20260510004244 54 129 2.0 6.0 0.00 0.00 0.00 92 1013.7
20260510003243 54 38 3.0 8.0 0.00 0.00 0.00 94 1013.9
20260510000242 55 80 1.0 3.0 0.00 0.00 0.00 90 1014.4
20260509235242 54 34 1.0 5.0 0.00 0.00 0.00 93 1014.5
20260509234242 53 0 0.0 0.0 0.00 0.00 0.00 92 1014.6
20260509233241 54 0 0.0 0.0 0.00 0.00 0.00 93 1014.6
20260509231240 53 121 0.0 2.0 0.00 0.00 0.00 93 1014.7
20260509230240 53 0 0.0 0.0 0.00 0.00 0.00 91 1014.7
20260509225239 54 0 0.0 0.0 0.00 0.00 0.00 90 1014.7
20260509224239 55 0 0.0 0.0 0.00 0.00 0.00 87 1014.7
20260509223239 56 30 2.0 6.0 0.00 0.00 0.00 86 1014.6
20260509222239 55 17 2.0 5.0 0.00 0.00 0.00 89 1014.8
20260509221238 56 39 1.0 6.0 0.00 0.00 0.00 87 1014.9
20260509215238 56 0 0.0 0.0 0.00 0.00 0.00 85 1015.1
20260509214237 56 0 0.0 0.0 0.00 0.00 0.00 85 1015.0
20260509212236 57 30 2.0 8.0 0.00 0.00 0.00 83 1015.0
20260509211236 57 0 0.0 0.0 0.00 0.00 0.00 82 1015.2
20260509210236 57 53 0.0 3.0 0.00 0.00 0.00 81 1015.4
20260509204235 59 58 1.0 5.0 0.00 0.00 0.00 77 1015.4
20260509203234 60 0 0.0 0.0 0.00 0.00 0.00 74 1015.3
20260509202234 61 51 3.0 6.0 0.00 0.00 0.00 70 1015.4
20260509201234 61 41 4.0 7.0 0.00 0.00 0.00 69 1015.4
20260509200233 62 24 5.0 9.0 0.00 0.00 0.00 68 1015.3
20260509194233 62 42 2.0 6.0 0.00 0.00 0.00 68 1015.3
20260509193232 63 20 3.0 7.0 0.00 0.00 0.00 63 1015.3
20260509192232 63 35 4.0 6.0 0.00 0.00 0.00 62 1015.2
20260509191232 63 35 5.0 7.0 0.00 0.00 0.00 60 1015.1
20260509190231 63 20 4.0 6.0 0.00 0.00 0.00 60 1015.0
20260509182230 66 39 3.0 3.0 0.00 0.00 0.00 57 1014.8
20260509181229 68 11 3.0 5.0 0.00 0.00 0.00 52 1014.8
20260509180229 68 23 2.0 5.0 0.00 0.00 0.00 53 1014.9
20260509175228 68 66 2.0 4.0 0.00 0.00 0.00 52 1014.8
20260509173228 69 15 3.0 5.0 0.00 0.00 0.00 50 1014.8